Change the Weather History Date:

Sunday, December 23, 2012

  Actual Average Record
Temperature  
Mean Temperature 60 °F 47 °F  
Max Temperature 70 °F 57 °F 79 °F (1981)
Min Temperature 49 °F 38 °F 0 °F (1989)
Degree Days  
Heating Degree Days 5 18  
Month to date heating degree days 208 382  
Since 1 July heating degree days 530 756  
Cooling Degree Days 0 0  
Month to date cooling degree days 28 0  
Year to date cooling degree days 3026 2411  
Growing Degree Days 12 (Base 50)    
Moisture  
Dew Point 51 °F    
Average Humidity 65    
Maximum Humidity 78    
Minimum Humidity 51    
Precipitation  
Precipitation 0.00 in 0.15 in 2.31 in (1939)
Month to date precipitation 1.29 3.15  
Year to date precipitation 33.12 44.70  
Snow  
Snow 0.00 in - - ()
Month to date snowfall 0.0  
Since 1 July snowfall 0.0  
Snow Depth 0.00 in    
Sea Level Pressure  
Sea Level Pressure 29.94 in    
Wind  
Wind Speed 9 mph (SW)    
Max Wind Speed 18 mph    
Max Gust Speed 25 mph    
Visibility 10 miles    
Events      
T = Trace of Precipitation, MM = Missing Value Source: NWS Daily Summary

Daily Weather History Graph

Daily Weather History Graph

Search for Another Location

Airport or City:

Trip Planner

Search our weather history database for the weather conditions in past years. The results will help you decide how hot, cold, wet, or windy it might be!

Date:

Astronomy

Dec. 23, 2012 Rise Set
Actual Time 7:20 AM CST 5:21 PM CST
Civil Twilight 6:53 AM CST 5:49 PM CST
Nautical Twilight 6:22 AM CST 6:19 PM CST
Astronomical Twilight 5:52 AM CST 6:49 PM CST
Moon 2:07 PM CST (12/23) 3:10 AM CST (12/23)
Length of Visible Light 10h 56m
Length of Day
10h 01m
Waxing Gibbous, 82% of the Moon is Illuminated
Dec 23
Waxing Gibbous
Dec 28
Full
Jan 4
Last Quarter
Jan 11
New
Jan 18
First Quarter

Hourly Weather History & Observations

Time (CST) Temp. Dew Point Humidity Pressure Visibility Wind Dir Wind Speed Gust Speed Precip Events Conditions
12:53 AM 59.0 °F 48.0 °F 67% 30.06 in 10.0 mi South 12.7 mph - N/A   Overcast
1:53 AM 59.0 °F 48.9 °F 69% 30.05 in 10.0 mi South 11.5 mph - N/A   Overcast
2:53 AM 59.0 °F 48.9 °F 69% 30.04 in 10.0 mi South 12.7 mph - N/A   Overcast
3:30 AM 59.0 °F 50.0 °F 72% 30.04 in 10.0 mi South 9.2 mph - N/A   Overcast
3:53 AM 59.0 °F 50.0 °F 72% 30.02 in 10.0 mi South 9.2 mph - N/A   Overcast
4:53 AM 59.0 °F 50.0 °F 72% 29.99 in 10.0 mi South 10.4 mph - N/A   Overcast
5:53 AM 59.0 °F 51.1 °F 75% 29.99 in 10.0 mi South 10.4 mph - N/A   Overcast
6:01 AM 59.0 °F 51.8 °F 77% 30.00 in 10.0 mi South 8.1 mph - N/A   Overcast
6:53 AM 60.1 °F 53.1 °F 78% 29.99 in 10.0 mi South 11.5 mph - N/A   Mostly Cloudy
7:19 AM 60.8 °F 53.6 °F 77% 30.00 in 10.0 mi SSW 10.4 mph - N/A   Mostly Cloudy
7:53 AM 60.1 °F 54.0 °F 80% 29.98 in 10.0 mi South 9.2 mph - N/A   Overcast
8:53 AM 62.1 °F 55.0 °F 78% 29.98 in 10.0 mi SSW 10.4 mph - N/A   Overcast
9:53 AM 64.9 °F 57.0 °F 75% 29.98 in 10.0 mi SW 11.5 mph 23.0 mph N/A   Overcast
10:45 AM 66.2 °F 57.2 °F 73% 29.97 in 10.0 mi SW 13.8 mph 21.9 mph N/A   Partly Cloudy
10:53 AM 66.0 °F 57.0 °F 73% 29.96 in 10.0 mi SSW 15.0 mph - N/A   Partly Cloudy
11:53 AM 66.9 °F 55.9 °F 68% 29.92 in 10.0 mi SW 15.0 mph - N/A   Partly Cloudy
12:53 PM 66.9 °F 55.9 °F 68% 29.87 in 10.0 mi SSW 13.8 mph - N/A   Partly Cloudy
1:53 PM 69.1 °F 55.9 °F 63% 29.84 in 10.0 mi SSW 12.7 mph - N/A   Partly Cloudy
2:53 PM 70.0 °F 54.0 °F 57% 29.83 in 10.0 mi SW 11.5 mph - N/A   Clear
3:53 PM 69.1 °F 53.1 °F 57% 29.83 in 10.0 mi WSW 5.8 mph - N/A   Clear
4:53 PM 66.9 °F 53.1 °F 61% 29.83 in 10.0 mi SW 4.6 mph - N/A   Clear
5:53 PM 64.9 °F 53.1 °F 65% 29.84 in 10.0 mi WSW 5.8 mph - N/A   Clear
6:53 PM 64.0 °F 50.0 °F 60% 29.86 in 10.0 mi WNW 5.8 mph - N/A   Clear
7:53 PM 61.0 °F 43.0 °F 52% 29.87 in 10.0 mi West 4.6 mph - N/A   Clear
8:53 PM 57.9 °F 42.1 °F 56% 29.88 in 10.0 mi WNW 4.6 mph - N/A   Clear
9:53 PM 55.9 °F 39.9 °F 55% 29.89 in 10.0 mi WNW 3.5 mph - N/A   Clear
10:53 PM 53.1 °F 37.0 °F 55% 29.90 in 10.0 mi WNW 4.6 mph - N/A   Clear
11:53 PM 48.9 °F 36.0 °F 61% 29.91 in 10.0 mi NW 5.8 mph - N/A   Clear